Theta_e
339 339 338 335 334 334 334 334 334 334 333 332 332 331 331 333 334 336 336 336 340 343 341 341 342 343 343 342 343 343 342 342 343 341 340 342 344 345 347 348 349 348
343 342 339 337 337 335 335 335 335 335 335 334 334 333 331 331 333 335 335 335 339 341 341 341 342 344 344 341 340 341 341 342 343 341 340 342 342 343 345 348 349 348
346 346 343 340 339 337 336 337 337 337 336 335 334 333 332 332 333 334 335 335 336 338 339 340 342 342 342 342 340 340 339 340 342 341 339 342 343 341 343 348 350 350
349 349 346 344 341 339 338 338 338 338 338 336 335 334 334 334 334 334 335 336 336 337 336 339 341 340 341 342 341 341 339 337 339 339 340 341 342 340 340 344 348 349
348 348 347 345 343 341 341 341 340 339 338 337 337 336 336 336 336 336 335 335 336 336 336 337 339 339 341 341 341 342 340 337 338 339 340 339 338 338 338 339 342 344
348 347 346 345 344 342 343 342 341 340 339 339 338 338 338 338 338 337 336 335 335 336 336 336 336 337 338 338 340 340 339 340 341 341 341 341 338 337 337 338 339 341
348 348 347 347 346 344 343 342 341 341 340 340 339 339 339 338 338 338 337 335 335 336 336 336 336 336 336 337 339 338 336 337 340 339 339 339 338 337 337 337 337 338
347 347 347 347 347 346 344 343 342 341 341 341 340 340 339 338 338 337 336 335 334 335 336 336 336 335 335 337 338 337 334 335 336 336 337 337 337 336 336 336 336 337
346 347 347 347 347 347 346 345 343 342 341 341 340 340 339 338 337 337 335 334 334 335 336 336 336 335 335 335 336 335 333 333 334 335 336 337 337 336 336 336 337 337
345 346 346 346 346 347 347 346 346 345 343 340 339 340 339 338 336 336 335 334 334 335 335 336 336 335 334 333 333 332 331 331 333 334 335 335 335 335 336 338 340 340
344 345 345 346 346 346 347 346 348 349 346 341 339 339 339 337 336 336 335 334 334 335 335 335 335 334 333 332 332 332 332 331 331 332 334 334 334 335 335 336 337 338
344 345 345 345 345 345 347 347 349 351 350 344 340 338 338 337 336 335 335 335 334 334 335 335 334 334 333 332 332 331 331 332 332 332 333 333 334 334 334 333 333 334
345 345 344 345 345 345 347 349 349 351 352 348 343 339 338 337 335 334 334 334 334 334 334 334 333 333 332 331 331 330 331 332 333 333 333 334 334 333 333 333 332 332
345 345 344 345 345 345 346 349 350 351 352 350 346 342 340 338 336 335 333 333 334 333 333 334 333 332 332 331 330 329 329 330 332 333 334 333 333 332 333 333 333 332
346 345 345 345 345 345 346 348 349 350 350 349 347 345 343 341 339 338 335 333 333 333 333 333 333 332 331 330 330 328 328 328 330 332 332 333 332 332 332 333 332 332
346 346 345 345 345 346 346 346 347 348 348 348 347 346 346 344 343 342 340 336 333 332 333 332 332 332 331 330 329 328 328 327 328 329 331 331 332 332 332 332 332 332
347 346 346 345 345 346 346 346 346 347 347 347 348 347 347 347 345 345 344 342 338 334 332 332 332 331 331 330 329 328 328 327 328 328 329 330 330 331 331 331 330 330
347 347 347 346 345 345 346 346 346 347 347 348 348 347 347 347 347 346 346 346 345 340 336 334 332 332 331 330 329 328 328 328 328 328 328 329 329 329 329 329 330 329
347 347 347 347 346 346 346 346 346 347 347 347 347 347 347 347 347 348 347 347 348 347 344 340 336 333 331 330 330 329 329 329 329 329 329 329 329 329 329 329 329 329
348 347 347 347 347 346 345 346 346 346 347 347 347 347 348 347 347 348 348 348 348 348 347 345 343 338 333 330 330 330 329 330 329 329 330 330 330 329 329 329 329 329
347 347 348 347 347 347 346 346 346 346 347 347 348 348 348 348 348 348 348 348 348 348 348 347 346 343 337 331 329 329 330 330 331 331 331 331 330 330 330 330 330 329
347 348 347 348 348 348 347 346 346 347 347 347 348 348 348 348 348 348 348 348 347 348 348 348 347 345 341 335 332 331 332 332 332 332 333 332 331 331 330 330 330 330
347 347 348 348 348 348 348 347 346 346 347 347 347 348 349 349 348 347 348 348 348 348 348 348 348 347 344 341 337 336 336 335 335 335 335 334 333 332 331 331 331 330
347 347 347 348 348 348 347 347 347 347 347 347 347 348 348 349 348 348 347 347 347 348 348 348 348 347 346 344 342 341 340 340 341 341 340 338 336 334 333 332 332 331
347 347 348 348 348 348 347 347 347 347 346 347 347 347 348 348 348 348 347 347 347 347 347 348 348 349 348 347 346 346 346 346 348 348 347 343 340 338 336 334 333 333
347 347 347 348 348 348 347 347 347 347 347 347 347 347 347 348 349 349 348 348 348 348 349 349 349 350 350 350 350 350 351 352 353 353 352 348 345 345 343 340 337 336
Wind_Speed
33 33 32 35 35 34 34 32 31 29 28 28 27 27 25 25 23 22 20 18 16 15 15 15 15 14 13 12 12 11 11 11 10 10 9 8 7 6 6 6 6 6
32 31 32 33 34 34 34 32 32 29 28 28 27 27 27 25 24 22 20 19 17 16 16 16 16 15 14 14 13 13 12 12 11 11 10 9 9 8 7 7 7 7
30 28 31 32 32 34 33 32 32 30 29 27 27 27 27 25 24 23 21 20 19 18 18 17 16 16 15 15 14 13 13 13 12 12 11 10 10 9 8 8 8 8
30 28 30 31 31 33 32 32 32 30 29 28 27 27 27 26 25 24 23 21 20 19 19 18 17 17 16 15 15 14 14 14 13 12 12 12 12 11 10 9 9 10
33 31 31 31 32 32 32 32 32 31 29 28 28 27 27 27 26 25 24 22 21 20 20 20 18 18 17 16 16 15 15 15 14 14 14 14 14 12 11 11 11 10
35 33 32 32 31 32 32 33 32 31 30 29 28 28 28 27 26 25 24 23 22 21 21 21 20 19 19 18 18 17 17 17 16 15 15 15 15 13 13 13 12 12
37 35 34 32 31 31 32 32 32 31 31 30 29 29 28 27 26 25 25 24 24 23 22 22 22 21 21 20 19 19 19 19 19 18 17 17 16 14 14 14 14 13
38 36 35 33 32 31 31 31 31 31 31 30 30 29 29 28 26 25 26 25 25 24 24 23 23 22 21 21 21 21 21 21 21 21 20 19 18 17 16 15 15 15
39 38 36 34 33 32 31 30 30 30 30 30 29 29 29 28 27 26 26 26 26 26 25 24 24 23 22 21 22 22 22 22 22 22 21 20 19 19 17 16 16 15
40 39 37 36 34 34 32 31 29 29 29 29 29 29 29 28 27 27 27 27 27 27 27 26 25 24 22 22 22 22 23 23 23 23 22 21 20 20 18 16 16 16
41 40 39 37 36 35 34 32 30 29 29 29 28 28 28 28 28 28 28 29 29 28 28 27 26 25 24 23 23 23 23 23 23 23 23 22 21 20 20 18 18 17
42 41 40 39 38 36 35 33 31 30 29 29 28 28 28 28 29 29 29 29 29 29 28 28 27 26 25 24 24 24 24 23 23 24 23 22 21 21 21 20 20 19
42 42 41 40 39 37 36 34 33 31 30 30 29 28 28 29 29 30 30 30 29 29 29 29 28 27 27 26 26 26 26 25 24 24 24 24 23 22 22 22 21 20
43 42 42 41 40 39 37 35 34 33 32 32 30 29 28 29 30 30 30 30 30 30 30 29 29 29 28 28 28 28 28 28 26 26 26 26 25 24 23 23 22 21
43 43 42 41 40 39 38 37 36 35 34 33 32 30 29 29 29 30 31 31 31 30 30 30 30 30 30 30 30 30 30 30 29 28 28 28 27 26 25 24 23 23
43 43 42 42 41 40 39 38 37 36 35 35 34 32 30 30 30 30 30 31 31 31 31 31 31 31 31 30 30 30 30 30 31 31 30 29 29 28 27 26 26 26
44 43 42 42 42 41 40 38 37 37 36 36 35 33 32 32 31 32 31 31 31 32 32 32 32 33 32 31 30 30 30 31 31 31 31 31 30 29 29 29 28 28
43 43 42 43 43 42 41 39 38 37 37 37 36 35 34 34 33 33 33 32 32 32 33 33 33 33 32 31 30 30 30 30 31 32 32 32 32 31 30 30 30 29
42 42 42 43 43 42 41 39 38 38 38 38 37 36 35 35 35 34 34 34 34 34 33 33 33 33 33 31 30 30 30 30 31 32 33 33 33 32 32 31 31 30
41 42 42 42 42 41 41 40 39 39 39 38 37 37 37 36 36 36 36 35 35 34 34 34 33 34 34 32 30 30 30 30 31 32 33 34 34 34 33 33 32 31
40 41 41 41 41 41 40 40 40 40 39 38 38 38 38 37 36 36 36 35 35 35 35 35 34 35 36 34 32 31 31 31 32 33 34 35 35 35 35 34 33 32
40 40 41 41 40 40 40 41 41 40 40 39 39 38 38 37 36 35 35 35 35 35 34 34 34 35 36 35 33 32 32 32 32 34 35 36 36 36 35 35 34 33
38 38 39 39 40 40 41 41 40 40 39 39 38 38 37 37 36 35 35 35 35 35 34 34 34 34 35 34 33 32 32 32 34 34 35 36 36 36 35 35 35 34
36 37 37 38 39 41 41 40 40 39 38 37 37 36 36 36 35 35 35 35 35 35 35 34 34 34 34 34 32 32 32 32 33 34 34 35 35 35 36 36 36 36
35 36 36 37 39 40 39 39 38 37 36 36 35 35 35 35 35 35 35 35 35 35 35 34 33 33 34 33 32 31 31 31 32 32 33 34 34 35 36 36 37 37
34 34 35 35 37 37 37 37 37 36 36 35 35 34 34 34 35 35 35 35 34 34 34 34 33 33 34 33 32 31 31 30 31 32 32 33 34 34 35 36 36 37
Wind_Direction
223 225 225 227 229 230 232 234 235 234 233 234 236 238 239 239 238 236 237 239 236 235 234 233 232 232 233 234 234 237 239 238 240 244 245 249 253 249 251 253 252 253
221 222 224 226 227 228 229 232 233 234 233 232 233 236 239 239 239 238 238 239 237 235 234 233 233 232 234 236 237 237 240 240 239 243 245 247 250 250 246 246 246 249
219 218 222 223 224 227 228 230 233 232 232 231 230 232 236 238 238 237 237 237 237 236 235 233 232 232 233 236 239 239 240 241 240 243 247 246 248 249 244 241 242 244
221 217 220 222 223 226 227 229 232 231 230 229 228 229 231 235 237 236 236 235 235 234 234 233 231 231 233 234 238 239 241 244 243 243 246 246 246 247 246 243 241 243
223 221 222 223 223 224 225 228 230 230 230 229 228 228 228 230 232 234 234 233 232 231 232 233 232 232 234 235 236 238 240 244 244 243 245 248 248 248 250 248 245 245
224 224 225 225 225 225 225 226 228 230 231 230 229 229 229 229 229 231 232 232 231 231 231 233 234 234 236 238 238 237 239 241 241 241 243 248 248 248 250 251 250 249
222 223 224 225 226 225 224 226 228 229 230 231 230 230 230 229 228 228 230 231 231 231 231 233 234 234 236 239 239 239 239 240 240 240 241 246 250 251 251 255 255 254
220 221 222 223 224 225 224 224 226 227 229 230 231 230 229 228 227 227 228 229 230 231 231 232 234 235 235 237 239 240 241 241 243 243 243 247 253 257 258 260 261 259
219 220 220 220 222 224 224 224 225 227 227 228 229 229 229 227 225 225 226 227 229 230 230 231 234 235 235 236 238 241 241 241 242 244 247 249 253 258 261 262 262 261
218 219 220 219 220 222 222 223 224 226 227 226 225 227 229 226 223 223 226 227 228 230 230 231 233 234 235 236 238 240 241 240 241 243 246 249 252 255 257 257 257 258
217 218 219 219 219 220 221 222 222 224 227 227 224 225 227 226 223 222 225 228 228 230 231 232 233 234 235 236 238 240 240 240 241 242 245 248 250 251 254 254 254 256
216 217 218 218 218 219 221 222 221 222 225 227 224 223 224 226 225 223 224 228 230 231 232 233 234 234 235 236 238 240 241 240 241 242 244 246 247 249 253 256 256 257
216 216 216 217 218 218 220 221 221 220 223 225 225 223 222 225 227 227 226 227 230 231 233 234 235 236 238 239 238 239 241 240 240 241 243 245 247 250 253 256 257 257
216 216 216 216 217 218 219 220 220 220 221 225 227 225 222 223 227 230 230 230 230 232 233 234 236 238 240 240 239 238 238 240 240 241 242 245 249 252 252 253 255 256
216 216 216 216 216 217 218 220 221 221 223 226 228 226 224 223 225 229 232 233 232 232 233 235 237 239 241 240 239 237 237 239 241 241 242 245 249 252 252 252 253 255
217 217 216 215 216 217 218 219 222 224 225 227 229 228 226 224 224 226 230 233 234 234 234 235 237 240 241 241 240 239 238 238 241 242 244 245 247 250 251 252 255 257
218 217 216 216 216 217 218 219 221 224 227 228 229 228 227 226 226 226 228 231 234 235 235 236 239 241 243 242 241 240 239 239 241 243 245 246 247 249 250 253 256 258
218 217 216 217 217 218 218 219 220 223 226 228 228 228 228 228 228 228 228 229 232 235 236 236 239 241 243 243 242 241 240 240 241 244 246 247 248 249 251 253 256 257
219 218 217 218 218 218 219 219 220 222 224 226 227 228 229 230 230 230 231 230 232 235 236 237 238 240 242 241 241 241 240 240 241 243 245 248 249 251 252 254 255 256
220 219 219 219 219 219 219 219 219 221 223 225 228 230 231 231 232 233 234 233 234 236 237 237 238 240 241 240 239 239 239 238 239 241 244 247 250 252 253 254 255 256
221 221 220 220 221 220 220 219 220 221 222 224 227 230 232 233 234 236 237 237 237 238 239 239 239 240 241 240 238 237 237 237 238 240 243 245 248 251 253 254 255 256
221 220 221 221 221 221 221 221 221 222 223 224 227 230 233 235 236 236 238 239 240 240 241 242 242 242 243 242 239 238 238 239 239 240 242 244 246 249 251 253 254 255
220 220 220 221 221 222 222 221 222 223 223 224 227 229 233 236 237 238 239 240 241 242 243 243 244 244 244 244 242 241 240 240 241 242 243 244 245 247 250 252 253 254
219 219 219 219 220 221 221 222 223 223 223 224 226 228 231 235 237 239 239 240 241 243 243 244 244 246 246 245 244 243 242 242 243 244 245 246 246 247 248 250 253 253
218 218 219 219 220 221 221 222 223 223 224 225 226 228 230 233 236 238 240 240 241 243 244 245 245 246 248 247 245 243 243 242 244 245 246 246 247 248 248 249 251 252
217 218 219 220 221 222 222 223 224 224 225 226 227 228 230 232 234 237 240 241 242 244 246 246 246 247 248 247 245 243 242 242 243 245 245 245 246 247 248 249 249 250